AO-07 1 07530U 74089B 26132.96371714 -.00000030 00000-0 10174-3 0 9995 2 07530 101.9917 145.8415 0012139 196.6170 276.9716 12.53697471356107 AO-27 1 22825U 93061C 26132.89794877 .00000043 00000-0 33463-4 0 9991 2 22825 98.6892 200.3212 0008050 196.3419 163.7505 14.30932230701955 FO-29 1 24278U 96046B 26132.82172513 -.00000025 00000-0 10649-4 0 9993 2 24278 98.5279 346.5311 0349707 188.0537 171.4897 13.53272310468383 ISS 1 25544U 98067A 26132.84394688 .00005010 00000-0 98361-4 0 9991 2 25544 51.6312 115.0561 0007510 52.2723 307.8945 15.49198654566277 SO-50 1 27607U 02058C 26132.34773994 .00000635 00000-0 92778-4 0 9998 2 27607 64.5523 239.8634 0075634 269.0204 90.2235 14.82969432259142 AO-73 1 39444U 13066AE 26132.91766683 .00005226 00000-0 32995-3 0 9996 2 39444 97.8258 103.6445 0035391 326.5596 33.3396 15.09022737674342 IO-86 1 40931U 15052B 25151.18580175 .00001241 00000-0 78118-4 0 9996 2 40931 6.0006 24.0987 0012733 338.8432 21.1169 14.78805930523159 CAS-2T 1 41847U 16066G 26132.91576418 .00000515 00000-0 82376-4 0 9999 2 41847 98.3825 209.0512 0341070 236.4731 120.3450 14.44590848499702 AO-91 1 43017U 17073E 26132.87740102 .00005964 00000-0 26261-3 0 9990 2 43017 97.4761 0.8269 0154160 90.5575 271.3322 15.12053585460054 PO-101 1 43678U 18084H 26132.88988731 .00002138 00000-0 17571-3 0 9993 2 43678 98.1105 327.5860 0011980 293.1110 66.8850 15.00274233410927 QO-100 1 43700U 18090A 26132.89805622 .00000157 00000-0 00000-0 0 9999 2 43700 0.0149 269.4676 0001586 176.4981 133.8433 1.00274284 27323 JO-97 1 43803U 18099AX 26132.91425191 .00010795 00000-0 34610-3 0 9990 2 43803 97.4156 195.6543 0006404 51.1531 309.0281 15.32506239408220 RS-44 1 44909U 19096E 26132.90164310 .00000012 00000-0 72241-5 0 9993 2 44909 82.5232 3.1557 0216668 226.7149 131.5702 12.79748087297832 CSS 1 48274U 21035A 26132.51920400 .00012182 00000-0 13837-3 0 9990 2 48274 41.4671 178.9319 0004229 292.2546 67.7845 15.62150141287599 HO-113 1 50466U 21131B 26132.92804762 .00000187 00000-0 71468-4 0 9997 2 50466 98.4955 225.5121 0003817 186.7290 173.3848 14.41322156230034 MO-122 1 60209U 24125G 26132.85455676 .00031341 00000-0 39424-3 0 9998 2 60209 97.2354 349.6251 0009336 356.6474 3.4719 15.59560814104053 AO-123 1 61781U 24199AY 26132.90696110 .00005234 00000-0 15521-3 0 9995 2 61781 97.3053 1.9017 0015860 77.6976 282.6042 15.35144249128511 TEVEL2-4 1 63213U 25052D 26132.95600032 .00011271 00000-0 35198-3 0 9999 2 63213 97.3946 29.3176 0001618 173.5147 186.6117 15.33353477 64716 TEVEL2-5 1 63214U 25052E 26132.97276000 .00011308 00000-0 35486-3 0 9997 2 63214 97.3948 29.2919 0001593 172.4915 187.6352 15.33198220 64711 TEVEL2-6 1 63215U 25052F 26132.46209847 .00010871 00000-0 34176-3 0 9996 2 63215 97.3947 28.7660 0001596 179.6392 180.4852 15.33149501 64634 TEVEL2-1 1 63217U 25052H 26132.21813956 .00010086 00000-0 32224-3 0 9993 2 63217 97.3919 28.1875 0000996 201.3370 158.7831 15.32655705 64585 TEVEL2-3 1 63218U 25052J 26132.67098570 .00010736 00000-0 34220-3 0 9991 2 63218 97.3924 28.6574 0001026 198.7744 161.3460 15.32713262 64651 TEVEL2-2 1 63219U 25052K 26132.41448572 .00010162 00000-0 32453-3 0 9994 2 63219 97.3921 28.3853 0001022 202.9376 157.1820 15.32665711 64615 TEVEL2-9 1 63237U 25052AD 26132.21621942 .00009160 00000-0 31033-3 0 9995 2 63237 97.3983 27.6373 0004029 268.4577 91.6202 15.30786209 64522 TEVEL2-7 1 63238U 25052AE 26132.96975065 .00010020 00000-0 34181-3 0 9990 2 63238 97.3986 28.3187 0004118 264.6324 95.4447 15.30533969 64632 TEVEL2-8 1 63239U 25052AF 26132.97761239 .00010154 00000-0 34654-3 0 9991 2 63239 97.3986 28.3046 0004119 265.7040 94.3730 15.30515803 64635 SO-125 1 63492U 25052BN 26132.47089678 .00683974 19664-3 18689-2 0 9991 2 63492 97.3771 36.5368 0009249 170.5020 189.6432 15.94023464 65158 Lobachevsky 1 67284U 25313AN 26132.94033383 .00003588 00000-0 15747-3 0 9999 2 67284 97.3930 208.1896 0012229 120.5007 239.7438 15.22522792 20594 QMR-KWT-2 1 67291U 25313AV 26132.93104974 .00008837 00000-0 35281-3 0 9998 2 67291 97.3941 208.5334 0010627 117.8110 242.4207 15.25337161 20614 NO-44 1 26931U 01043C 26132.95706249 .00000065 00000-0 55252-4 0 9999 2 26931 67.0512 335.3934 0006279 263.7179 96.3208 14.31941974285403 IO-117 1 53106U 22080B 25167.32760529 -.00000003 00000-0 00000-0 0 9996 2 53106 70.1560 65.9804 0008358 24.6429 335.4629 6.42557409 68669 SONATE-2 1 59112U 24043Q 26132.86300328 .00024600 00000-0 35218-3 0 9999 2 59112 97.5494 281.1759 0005910 332.4958 27.5983 15.56174623122391 TEN-KOH2 1 88780U 25241B 26071.31019830 .00010367 00000+0 45580-3 0 9997 2 88780 51.6301 60.3795 0004576 163.6979 196.4146 15.22421637 141